Home   Weather   Zoetermeer   Past weeks

Flag for Netherlands Past Weather in Zoetermeer, Netherlands — Yesterday and Last 2 Weeks

Now
46 °F

Partly cloudy.


Feels Like: 39 °F
Forecast: 40 / 49 °F
Wind: 18 mph from Northwest

Location: Rotterdam Zestienhoven Airport

Current Time: Dec 11, 2016 at 3:39:35 am

Latest Report: Dec 11, 2016 at 2:55 am


Visibility: 5 mi

Pressure: 29.98 "Hg

Humidity: 93%

Dew Point: 45 °F

Location of ZoetermeerLocation

Past Weather in Zoetermeer — Graph

°F

Zoetermeer Temperature Yesterday

Maximum temperature yesterday: 50 °F (at 8:55 pm)
Minimum temperature yesterday: 45 °F (at 12:25 am)
Average temperature yesterday: 47 °F

High & Low Weather Summary for the Past Weeks

 TemperatureHumidityPressure
High52 °F (Dec 8, 10:55 pm)100% (Nov 26, 4:25 am)30.60 "Hg (Nov 26, 4:25 am)
Low21 °F (Nov 29, 10:55 pm)52% (Nov 29, 2:25 pm)29.92 "Hg (Dec 11, 1:25 am)
Average39 °F88%30.32 "Hg
* Reported Nov 26 1:25 am — Dec 11 1:55 am, Zoetermeer, Weather by CustomWeather, © 2016

Note: Actual official high and low records may vary slightly from our data, if they occured in-between our weather recording intervals... More about our weather records

Advertising

Zoetermeer Weather History for the Previous 24 Hours

Scroll right to see more
 ConditionsComfort  
Time TempWeatherWind HumidityBarometerVisibility
1:55 am
Sun, Dec 11
50 °FSprinkles. Passing clouds.22 mph94%29.92 "Hg5 mi
1:25 am50 °FSprinkles. Partly cloudy.22 mph94%29.92 "Hg4 mi
12:55 am48 °FLight rain. Partly cloudy.20 mph94%29.95 "Hg4 mi
12:25 am48 °FSprinkles. Passing clouds.20 mph94%29.98 "Hg3 mi
11:55 pm
Sat, Dec 10
48 °FLight rain. Partly cloudy.17 mph94%29.98 "Hg3 mi
11:25 pm48 °FPartly cloudy.16 mph94%29.98 "Hg4 mi
10:55 pm50 °FPartly cloudy.17 mph88%30.01 "Hg6 mi
10:25 pm50 °FDrizzle. Mostly cloudy.18 mph94%30.04 "Hg5 mi
9:55 pm50 °FDrizzle. Mostly cloudy.16 mph94%30.04 "Hg4 mi
9:25 pm48 °FLight rain. Partly cloudy.15 mph100%30.07 "Hg3 mi
8:55 pm50 °FFog.14 mph94%30.07 "Hg2 mi
8:25 pm48 °FFog.14 mph100%30.09 "Hg2 mi
7:55 pm48 °FFog.13 mph100%30.09 "Hg1 mi
7:25 pm48 °FFog.10 mph94%30.09 "Hg1 mi
6:55 pm46 °FFog.9 mph100%30.12 "Hg1 mi
6:25 pm46 °FFog.9 mph100%30.12 "Hg1 mi
5:55 pm48 °FFog.12 mph100%30.12 "Hg1 mi
5:25 pm46 °FFog.12 mph100%30.15 "Hg1 mi
4:55 pm46 °FFog.9 mph100%30.15 "Hg1 mi
4:25 pm48 °FFog.10 mph94%30.15 "Hg1 mi
3:55 pm48 °FFog.9 mph100%30.15 "Hg1 mi
2:55 pm48 °FFog.10 mph94%30.15 "Hg1 mi
2:25 pm48 °FFog.8 mph94%30.18 "Hg1 mi
1:55 pm46 °FFog.8 mph100%30.18 "Hg1 mi
1:25 pm46 °FFog.8 mph100%30.18 "Hg1 mi
12:55 pm46 °FDrizzle. Low clouds.8 mph100%30.18 "Hg1 mi
12:25 pm46 °FFog.7 mph100%30.21 "Hg1 mi
11:55 am46 °FFog.10 mph100%30.21 "Hg1 mi
11:25 am46 °FFog.9 mph93%30.21 "Hg1 mi
10:55 am46 °FFog.9 mph93%30.21 "Hg2 mi
10:25 am46 °FFog.12 mph93%30.21 "Hg3 mi
9:55 am46 °FFog.8 mph93%30.21 "Hg3 mi
9:25 am46 °FLow clouds.12 mph93%30.18 "Hg4 mi
8:55 am46 °FLow clouds.14 mph87%30.18 "Hg4 mi
8:25 am46 °FMostly cloudy.14 mph87%30.18 "HgN/A
7:55 am46 °FMostly cloudy.13 mph87%30.18 "HgN/A
7:25 am46 °FClear.13 mph82%30.18 "HgN/A
6:55 am45 °FClear.14 mph87%30.18 "HgN/A
5:55 am46 °FPassing clouds.13 mph82%30.18 "HgN/A
5:25 am45 °FClear.12 mph87%30.18 "HgN/A
4:55 am45 °FClear.10 mph87%30.18 "HgN/A
4:25 am45 °FClear.13 mph87%30.18 "HgN/A
3:55 am45 °FClear.13 mph87%30.21 "HgN/A
3:25 am45 °FClear.14 mph87%30.21 "HgN/A
Weather by CustomWeather, © 2016

See weather overviewHow to use our weather pages